GFSNIL_sfc_thetae_180.txt.gz
Theta_e
290 290 290 290 289 289 288 288 288 287 287 287 287 286 286 285 284 282 281 280 281 282
290 290 290 289 289 288 288 289 287 287 286 286 285 285 284 284 282 281 281 280 281 281
290 290 290 289 288 288 288 287 286 285 285 285 284 284 284 283 282 280 280 280 280 280
289 289 289 289 288 287 287 287 286 285 285 285 284 284 283 281 281 280 279 279 279 280
290 289 288 288 287 287 286 287 286 286 285 285 284 284 281 280 280 279 278 279 279 280
288 287 287 287 287 287 286 286 286 285 284 284 283 281 281 280 279 279 279 279 279 279
287 287 286 287 286 287 286 285 284 284 284 283 282 281 281 280 279 278 278 279 279 278
287 287 287 286 286 286 285 285 284 284 282 282 281 282 278 279 278 277 276 278 278 277
288 287 286 285 285 284 283 283 283 282 281 280 282 282 282 277 275 276 276 275 275 276
287 286 285 284 283 282 280 280 280 279 280 279 279 282 281 280 276 274 273 274 274 275
286 284 284 282 281 280 279 278 278 278 279 278 280 281 280 279 275 274 274 273 272 272
284 282 281 280 279 279 278 277 277 278 277 276 276 280 279 277 275 275 274 275 274 274
283 281 279 279 278 277 277 278 278 277 276 277 275 278 278 277 275 274 274 274 274 276
281 279 279 278 277 276 276 276 275 275 274 275 275 275 277 277 275 274 273 273 273 274

GFSNIL_sfc_thetae_183.txt.gz
Theta_e
291 291 290 290 289 289 288 287 287 286 286 285 285 284 285 283 282 280 280 279 279 280
290 290 290 290 289 288 288 287 286 285 285 284 284 283 284 281 280 279 279 279 279 279
290 290 290 290 289 288 287 287 285 284 284 284 283 284 283 281 280 279 279 279 278 279
289 290 290 289 288 288 286 286 285 285 284 284 283 283 281 281 280 279 278 278 279 279
289 289 289 288 288 287 286 286 285 285 285 284 284 282 281 279 279 278 278 278 278 279
288 288 288 287 287 287 286 286 285 285 284 283 283 281 280 279 278 278 278 278 278 278
288 288 287 287 286 286 286 285 284 284 284 283 281 281 280 279 278 277 277 278 278 277
288 288 287 286 286 286 285 284 284 283 282 281 281 281 278 278 277 277 276 276 276 276
288 287 287 285 285 285 283 283 283 281 281 280 281 282 281 275 275 276 275 274 275 275
288 287 286 285 284 282 281 281 280 280 280 279 279 282 281 279 276 274 273 273 274 274
287 285 284 283 281 280 280 279 278 279 279 278 279 280 280 277 275 274 274 273 271 271
285 283 282 281 280 279 278 277 277 278 276 275 276 279 278 277 274 274 274 275 274 273
284 283 281 280 279 279 278 277 278 276 276 276 274 277 277 276 275 273 274 274 274 275
283 281 280 278 278 277 276 276 275 274 274 274 275 274 276 276 275 274 273 272 273 273

GFSNIL_sfc_thetae_189.txt.gz
Theta_e
299 298 297 296 295 293 292 292 292 291 291 291 290 289 288 287 286 286 285 285 285 286
299 298 297 296 295 294 293 292 290 290 289 290 289 288 287 286 285 285 285 284 285 285
298 298 297 296 295 293 292 291 289 289 288 289 288 287 287 285 284 284 284 284 284 284
297 296 295 294 294 291 291 291 289 287 287 288 287 287 285 284 283 282 282 283 283 282
294 295 294 293 292 292 291 290 288 287 287 287 287 286 285 283 283 282 281 281 282 280
293 293 292 292 292 291 290 288 288 287 287 286 286 285 284 283 282 281 281 280 280 280
291 293 292 292 291 291 290 288 287 287 287 286 285 285 283 282 281 281 280 280 280 280
292 291 291 290 291 291 290 288 288 287 287 286 285 284 283 282 281 280 278 279 279 279
291 290 289 289 289 290 289 288 287 286 286 285 284 282 281 281 280 279 278 279 278 278
290 289 288 288 288 287 287 286 285 285 285 284 284 282 281 279 280 279 278 278 278 277
289 287 287 286 286 286 285 285 285 284 284 283 283 283 282 279 279 278 278 278 277 277
288 286 285 285 284 284 284 283 283 283 282 282 282 281 280 278 278 277 277 278 277 277
286 285 285 285 284 284 284 283 283 282 282 281 280 280 278 278 278 276 277 277 277 274
285 285 285 284 283 283 282 281 280 280 279 278 279 279 277 277 277 277 276 276 276 276

GFSNIL_sfc_thetae_195.txt.gz
Theta_e
312 314 311 309 307 305 304 304 304 303 302 301 300 299 298 297 297 297 296 296 295 295
311 310 310 310 308 307 307 304 303 302 301 299 298 296 297 295 294 295 294 294 294 294
311 310 309 307 304 305 305 304 301 300 299 297 296 295 294 294 292 292 292 293 292 292
311 310 307 304 303 302 304 301 299 298 296 295 293 293 293 291 291 290 290 291 291 290
310 309 305 304 303 302 301 300 298 296 294 293 292 291 290 289 289 288 288 288 289 288
308 306 305 303 302 301 299 297 295 294 293 292 291 290 290 288 288 288 287 287 288 287
308 308 306 305 302 299 296 295 293 293 292 291 290 289 288 287 287 287 286 287 286 286
307 306 305 304 300 297 295 294 293 292 290 290 289 288 287 287 286 285 285 284 284 284
305 304 301 298 297 296 294 292 291 291 289 289 288 287 287 287 285 285 283 283 283 283
304 301 299 296 295 292 291 291 291 290 289 287 287 285 285 285 285 284 283 283 283 282
303 300 296 295 292 291 290 289 289 287 287 286 284 285 284 283 284 283 282 283 283 282
301 297 294 291 289 289 287 286 286 286 285 285 284 284 283 282 282 281 281 282 282 281
299 294 289 288 286 286 286 286 286 285 286 285 283 283 283 282 281 280 281 281 281 278
289 287 286 286 286 285 285 285 285 285 285 284 284 284 283 282 282 282 281 281 280 279

GFSNIL_sfc_thetae_198.txt.gz
Theta_e
311 311 309 307 306 304 303 302 302 302 301 301 299 298 297 296 295 295 294 293 293 292
310 310 308 307 306 305 304 303 302 301 301 299 298 297 296 294 293 293 293 293 292 292
309 309 308 307 304 304 303 302 301 300 299 297 295 295 294 293 293 292 291 292 291 290
310 309 308 305 304 303 302 301 299 299 297 295 293 294 292 291 291 290 288 290 289 289
310 309 307 304 303 302 300 299 298 298 295 294 293 292 290 289 289 288 287 288 288 287
309 307 306 303 302 301 298 298 297 295 294 292 291 291 289 289 288 287 287 288 287 286
307 306 305 303 301 300 298 296 295 294 293 291 290 289 288 287 286 286 286 287 287 286
308 307 304 302 300 298 296 294 293 292 291 290 289 288 287 286 286 285 284 285 285 282
307 306 304 301 299 295 294 292 292 290 289 288 288 288 288 287 285 284 283 282 283 282
305 304 302 299 296 293 292 291 290 289 288 287 287 287 287 286 285 284 283 283 282 281
304 303 298 295 294 292 290 289 289 288 287 286 285 287 286 285 284 283 283 283 283 282
303 299 295 292 291 290 289 288 287 286 285 284 284 286 285 284 283 281 281 282 282 282
299 295 292 291 288 289 288 285 285 285 285 285 283 285 284 284 282 280 280 281 281 281
292 291 289 288 287 286 285 285 284 284 284 283 283 283 284 283 281 280 280 280 278 278

GFSNIL_sfc_thetae_201.txt.gz
Theta_e
312 309 307 306 306 305 305 304 303 302 301 299 298 297 296 295 293 293 292 291 291 291
310 310 308 307 306 305 304 302 301 301 300 298 297 296 295 293 293 293 292 292 291 290
310 310 309 306 304 304 303 302 301 300 299 297 296 295 294 293 292 291 291 291 290 290
310 309 309 307 305 304 302 302 300 300 297 296 295 294 293 292 292 290 290 290 289 288
310 308 306 306 304 303 301 301 300 299 297 295 294 294 291 291 291 289 288 288 287 287
309 308 307 305 304 302 301 300 299 298 295 294 293 292 291 290 289 288 288 288 287 286
307 307 306 303 301 300 299 298 297 296 294 293 292 290 289 289 288 287 287 287 287 286
306 305 303 301 299 298 297 296 295 294 292 291 290 288 287 287 286 285 285 285 284 284
305 304 301 299 298 296 295 294 293 291 290 289 288 288 288 287 285 285 284 283 282 283
305 304 300 298 296 293 292 292 291 290 289 287 287 288 288 287 285 284 283 282 281 281
304 303 299 297 293 292 291 291 289 288 287 286 286 288 288 286 284 283 283 283 282 281
302 298 296 292 291 291 289 289 288 287 286 285 285 287 286 284 283 282 282 283 283 281
298 296 293 292 290 289 289 287 287 285 285 286 284 286 286 284 282 280 281 281 282 281
288 291 292 290 289 288 287 285 285 284 284 284 284 285 285 284 282 281 280 280 280 279